SPOT 6

Last updated on Sat Apr 13 2024 01:02:24 GMT+0100 (British Summer Time)

1 38755U 12047A 24103.55572401 .00000506 00000+0 11851-3 0 9990 2 38755 98.1483 170.9235 0001173 84.0313 276.1020 14.58557569617075
UTC large
Height (km)
Speed (km/s)
/
Latitude / Longitude
Inclination (degrees)
Orbital Period (minutes)
Azimuth
Elevation
Range (km)
Doppler Factor

Next 0 passes for location: London (51.5072 / 0.1276)

Sorry there are no passes over London.